Location: Windsor
(43.2292°N, 89.3015°W)
Time: 07:21:14
(UTC+00:00)

SO-50 - Visible Passes

Search period start: 01 July 2022 00:00
Search period end: 11 July 2022 00:00
Orbit: 586 x 697 km, 64.6° (Epoch: 30 June)

Date Brightness Start Highest point End Pass type
(mag) Time Alt. Az. Time Alt. Az. Time Alt. Az.
01 Jul ? 05:14:41 19° E 05:14:41 19° E 05:17:07 10° ENE visible
01 Jul ? 06:52:15 39° W 06:53:35 52° NW 06:58:19 10° NNE visible
01 Jul ? 08:33:14 10° NW 08:35:10 12° NNW 08:37:07 10° N visible
02 Jul ? 05:38:06 47° E 05:38:06 47° E 05:42:21 10° NE visible
02 Jul ? 07:15:40 16° W 07:18:22 26° NW 07:22:29 10° NNE visible
03 Jul ? 04:23:54 12° E 04:23:54 12° E 04:24:48 10° ENE visible
03 Jul ? 06:01:27 63° WSW 06:02:07 75° NW 06:06:59 10° NNE visible
03 Jul ? 07:40:34 10° WNW 07:43:24 15° NNW 07:46:18 10° N visible
04 Jul ? 04:47:10 30° E 04:47:10 30° E 04:50:42 10° NE visible
04 Jul ? 06:24:43 24° W 06:26:47 36° NW 06:31:16 10° NNE visible
05 Jul ? 05:10:20 70° SSE 05:10:42 75° ESE 05:15:33 10° NE visible
05 Jul ? 06:48:12 10° W 06:51:42 20° NW 06:55:16 10° N visible
06 Jul ? 03:55:51 21° E 03:55:51 21° E 03:58:49 10° ENE visible
06 Jul ? 05:33:23 32° WSW 05:35:15 50° NW 05:40:00 10° NNE visible
06 Jul ? 07:15:01 10° NW 07:16:52 12° NNW 07:18:43 10° N visible
07 Jul ? 04:18:45 47° SE 04:19:21 50° ESE 04:24:02 10° NE visible
07 Jul ? 05:56:16 11° W 06:00:02 26° NW 06:04:08 10° NNE visible
08 Jul ? 03:03:55 15° ESE 03:03:59 15° ESE 03:06:34 10° ENE visible
08 Jul ? 04:41:26 29° SW 04:43:46 73° NW 04:48:38 10° NNE visible
08 Jul ? 06:22:17 10° WNW 06:25:06 15° NNW 06:27:55 10° N visible
09 Jul ? 03:26:17 25° SSE 03:28:03 33° ESE 03:32:22 10° NE visible
09 Jul ? 05:04:07 10° WSW 05:08:27 35° NW 05:12:55 10° NNE visible
10 Jul ? 03:48:04 12° SSW 03:52:21 78° ESE 03:57:12 10° NE visible
10 Jul ? 05:29:54 10° W 05:33:22 19° NW 05:36:54 10° N visible
